This is the latest recevied weather packets stored in our database for station/object KR0L-13. If no packets are shown the sender has not sent any weather packets the latest 10 day(s).
| Time | Temp. | Humidity | Pressure | Rain* | Wind** | Luminosity | Snow |
|---|---|---|---|---|---|---|---|
| 1777695620 | 6.11° C | 87% | 1019.4 hPa | 0 mm | - | - | - |
| 1777695021 | 6.11° C | 85% | 1019.3 hPa | 0 mm | - | - | - |
| 1777694420 | 6.11° C | 84% | 1019.4 hPa | 0 mm | - | - | - |
| 1777693820 | 6.67° C | 83% | 1019.4 hPa | 0 mm | - | - | - |
| 1777693220 | 7.22° C | 83% | 1019.4 hPa | 0 mm | - | - | - |
| 1777692620 | 7.22° C | 81% | 1019.3 hPa | 0 mm | - | - | - |
| 1777692020 | 7.78° C | 80% | 1019.2 hPa | 0 mm | - | - | - |
| 1777691420 | 8.33° C | 81% | 1019.3 hPa | 0 mm | - | - | - |
| 1777690820 | 8.89° C | 78% | 1019.2 hPa | 0 mm | - | - | - |
| 1777690220 | 9.44° C | 79% | 1019.3 hPa | 0 mm | - | - | - |
| 1777689620 | 9.44° C | 78% | 1019 hPa | 0 mm | - | - | - |
| 1777689020 | 9.44° C | 79% | 1018.7 hPa | 0 mm | - | - | - |
| 1777688420 | 9.44° C | 76% | 1018.4 hPa | 0 mm | - | - | - |
| 1777687820 | 9.44° C | 75% | 1018.2 hPa | 0 mm | - | - | - |
| 1777687220 | 10° C | 71% | 1018 hPa | 0 mm | - | - | - |
| 1777686622 | 10.56° C | 69% | 1018 hPa | 0 mm | - | - | - |
| 1777686022 | 11.11° C | 67% | 1018 hPa | 0 mm | - | - | - |
| 1777685422 | 12.22° C | 64% | 1017.6 hPa | 0 mm | - | - | - |
| 1777684822 | 12.78° C | 63% | 1017.7 hPa | 0 mm | - | - | - |
| 1777684223 | 13.33° C | 63% | 1017.9 hPa | 0 mm | - | - | - |
| 1777683622 | 13.33° C | 63% | 1017.7 hPa | 0 mm | - | - | - |
| 1777683022 | 13.33° C | 64% | 1017.6 hPa | 0 mm | - | - | - |
| 1777682422 | 13.33° C | 65% | 1017.6 hPa | 0 mm | - | - | - |
| 1777681822 | 13.33° C | 64% | 1017.3 hPa | 0 mm | - | - | - |
| 1777681222 | 13.89° C | 62% | 1017.4 hPa | 0 mm | - | - | - |
* Rain latest hour (hover to see other rain measurements)
** Current wind speed in m/s (hover to see current wind gust speed)